This is the latest recevied weather packets stored in our database for station/object IZ3LSV-13. If no packets are shown the sender has not sent any weather packets the latest 10 day(s).
| Time | Temp. | Humidity | Pressure | Rain* | Wind** | Luminosity | Snow |
|---|---|---|---|---|---|---|---|
| 1787555376 | 26.67° C | - | 1112.6 hPa | 0 mm | - | - | - |
| 1787555071 | 26.67° C | - | 1112.5 hPa | 0 mm | - | - | - |
| 1787554765 | 26.11° C | - | 1112.7 hPa | 0 mm | - | - | - |
| 1787554460 | 26.11° C | - | 1112.8 hPa | 0 mm | - | - | - |
| 1787554154 | 26.11° C | - | 1112.8 hPa | 0 mm | - | - | - |
| 1787553849 | 26.11° C | - | 1112.6 hPa | 0 mm | - | - | - |
| 1787553543 | 26.11° C | - | 1112.6 hPa | 0 mm | - | - | - |
| 1787553238 | 26.11° C | - | 1112.6 hPa | 0 mm | - | - | - |
| 1787552933 | 26.11° C | - | 1112.7 hPa | 0 mm | - | - | - |
| 1787552627 | 26.11° C | - | 1112.8 hPa | 0 mm | - | - | - |
| 1787552322 | 26.11° C | - | 1112.8 hPa | 0 mm | - | - | - |
| 1787552017 | 26.11° C | - | 1112.7 hPa | 0 mm | - | - | - |
| 1787551711 | 26.11° C | - | 1112.7 hPa | 0 mm | - | - | - |
| 1787551406 | 26.67° C | - | 1112.7 hPa | 0 mm | - | - | - |
| 1787551100 | 26.67° C | - | 1112.7 hPa | 0 mm | - | - | - |
| 1787550794 | 27.22° C | - | 1112.8 hPa | 0 mm | - | - | - |
| 1787550489 | 27.78° C | - | 1112.9 hPa | 0 mm | - | - | - |
| 1787550184 | 28.89° C | - | 1112.8 hPa | 0 mm | - | - | - |
| 1787549878 | 29.44° C | - | 1112.6 hPa | 0 mm | - | - | - |
| 1787549573 | 28.89° C | - | 1112.6 hPa | 0 mm | - | - | - |
| 1787549268 | 28.33° C | - | 1112.5 hPa | 0 mm | - | - | - |
| 1787548962 | 27.22° C | - | 1112.5 hPa | 0 mm | - | - | - |
| 1787548656 | 26.11° C | - | 1112.4 hPa | 0 mm | - | - | - |
| 1787548350 | 25° C | - | 1112.5 hPa | 0 mm | - | - | - |
| 1787548045 | 23.33° C | - | 1112.5 hPa | 0 mm | - | - | - |
* Rain latest hour (hover to see other rain measurements)
** Current wind speed in m/s (hover to see current wind gust speed)